Parrsboro, Nova Scotia

10:50 AM AST on December 07, 2016 (GMT -0400)
Parrsboro

Weather History for CAPR - January, 2014

Change the Weather History Date:

Monday, January 13, 2014

  Actual Average Record
Temperature  
Mean Temperature 34 °F -  
Max Temperature 39 °F - - ()
Min Temperature 30 °F - - ()
Degree Days  
Heating Degree Days 30    
Moisture  
Dew Point 27 °F    
Average Humidity 73    
Maximum Humidity 91    
Minimum Humidity 50    
Precipitation  
Precipitation 0.00 in - - ()
Sea Level Pressure  
Sea Level Pressure 29.92 in    
Wind  
Wind Speed 5 mph ()    
Max Wind Speed 10 mph    
Max Gust Speed 18 mph    
T = Trace of Precipitation, MM = Missing Value Source: Averaged Metar Reports

Daily Weather History Graph

Daily Weather History Graph

Search for Another Location

Airport or City:

Trip Planner

Search our weather history database for the weather conditions in past years. The results will help you decide how hot, cold, wet, or windy it might be!

Date:

Astronomy

Jan. 13, 2014 Rise Set
Actual Time 7:54 AM AST 4:58 PM AST
Civil Twilight 7:21 AM AST 5:31 PM AST
Nautical Twilight 6:44 AM AST 6:08 PM AST
Astronomical Twilight 6:08 AM AST 6:43 PM AST
Moon 3:10 PM AST (1/13) 5:39 AM AST (1/13)
Length of Visible Light 10h 10m
Length of Day
9h 03m
Waxing Gibbous, 94% of the Moon is Illuminated
Jan 13
Waxing Gibbous
Jan 16
Full
Jan 24
Last Quarter
Jan 30
New
Feb 6
First Quarter

Hourly Weather History & Observations

Time (AST) Temp. Windchill Dew Point Humidity Pressure Visibility Wind Dir Wind Speed Gust Speed Precip Events Conditions
12:00 AM 34.0 °F 28.0 °F 27.0 °F 75% 29.60 in - West 6.9 mph - N/A   Unknown
1:00 AM 34.2 °F 29.0 °F 27.0 °F 75% 29.62 in - WNW 5.8 mph - N/A   Unknown
2:00 AM 33 °F - 28 °F 74% 29.65 in - West 3.5 mph - -  
2:00 AM 33.4 °F 30.4 °F 27.9 °F 80% 29.65 in - West 3.5 mph - N/A   Unknown
3:00 AM 34.0 °F 28.8 °F 28.8 °F 81% 29.70 in - WNW 5.8 mph - N/A   Unknown
4:00 AM 34.0 °F 29.8 °F 29.1 °F 82% 29.73 in - WNW 4.6 mph - N/A   Unknown
5:00 AM 33.3 °F 28.9 °F 28.6 °F 83% 29.78 in - WNW 4.6 mph - N/A   Unknown
6:00 AM 31.3 °F 27.9 °F 27.1 °F 85% 29.80 in - WNW 3.5 mph - N/A   Unknown
7:00 AM 32.9 °F 29.8 °F 25.3 °F 74% 29.87 in - WNW 3.5 mph - N/A   Unknown
8:00 AM 33 °F - 24 °F 60% 29.90 in - WNW 5.8 mph - -  
8:00 AM 33.4 °F 28.1 °F 24.4 °F 70% 29.90 in - WNW 5.8 mph - N/A   Unknown
9:00 AM 34.7 °F 28.8 °F 23.5 °F 64% 29.92 in - WNW 6.9 mph - N/A   Unknown
10:00 AM 37.2 °F 33.6 °F 23.2 °F 57% 29.95 in - WNW 4.6 mph - N/A   Unknown
11:00 AM 38.3 °F 33.2 °F 22.5 °F 53% 29.99 in - WNW 6.9 mph - N/A   Unknown
12:00 PM 38.5 °F 32.1 °F 22.3 °F 52% 29.99 in - WSW 9.2 mph - N/A   Unknown
1:00 PM 38.8 °F 33.8 °F 23.7 °F 55% 30.01 in - WSW 6.9 mph - N/A   Unknown
2:00 PM 38 °F - 26 °F 50% 30.02 in - WSW 10.4 mph - -  
2:00 PM 38.3 °F 33.2 °F 26.1 °F 61% 30.02 in - WSW 6.9 mph 18.4 mph N/A   Unknown
3:00 PM 37.8 °F 30.7 °F 26.4 °F 64% 30.04 in - West 10.4 mph - N/A   Unknown
4:00 PM 37.2 °F 31.2 °F 27.7 °F 68% 30.05 in - West 8.1 mph - N/A   Unknown
5:00 PM 34.9 °F 32.0 °F 28.6 °F 78% 30.06 in - SSW 3.5 mph - N/A   Unknown
6:00 PM 34.2 °F - 29.1 °F 82% 30.06 in - SSW 2.3 mph - N/A   Unknown
7:00 PM 30.4 °F - 28.0 °F 91% 30.06 in - South 2.3 mph - N/A   Unknown
8:00 PM 32 °F - 29 °F 83% 30.07 in - SSE 3.5 mph - -  
8:00 PM 31.6 °F - 28.8 °F 89% 30.07 in - South 2.3 mph - N/A   Unknown
9:00 PM 32.4 °F - 28.8 °F 87% 30.08 in - SSE 2.3 mph - N/A   Unknown
10:00 PM 32.2 °F - 29.7 °F 90% 30.07 in - SSE 2.3 mph - N/A   Unknown
11:00 PM 30.6 °F - 27.3 °F 88% 30.07 in - SSE 2.3 mph - N/A   Unknown